Location: Unspecified
(0.0000°N, 0.0000°E)
Time: 07:03:39
(UTC+00:00)

LES 2 - Pass Details

Date: 09 October 2025
Orbit: 2783 x 14792 km, 32.1° (Epoch: 30 October)

Event Time Altitude Azimuth Distance (km) Brightness Sun altitude
Rises 22:00:49 0° 302° (WNW) 8,831 ? -62.7°
Reaches altitude 10° 22:06:54 10° 300° (WNW) 6,943 ? -64.1°
Enters shadow 22:15:39 35° 295° (WNW) 4,264 ? -66.2°
Exits shadow 22:41:46 - 127° (SE) 7,222 ? -72.4°
Sets 22:44:08 0° 127° (SE) 7,979 ? -73.0°
